Wind_Speed
31 34 37 34 33 35 36 38 37 43 45 46 46 50 52 54 59 64 68 73 78 82 86 91 95 102 108 115 121 126 132 134 135 128 123 119 118 114 112 108 106 105 103 99
39 39 42 43 41 39 39 39 40 43 46 49 49 52 57 59 66 70 74 77 82 86 91 96 102 109 116 124 132 137 137 130 121 116 113 113 112 108 106 106 103 99 93 87
39 42 47 44 42 42 41 41 45 46 47 49 53 57 62 65 72 74 77 82 87 95 101 107 112 120 122 130 136 128 121 114 110 110 110 109 107 106 104 99 94 88 84 79
42 43 49 44 43 45 48 44 44 45 48 53 58 63 68 71 75 78 83 88 96 103 109 114 121 126 129 132 126 120 115 107 108 108 106 104 103 100 95 89 84 79 74 70
46 45 47 46 45 45 43 45 49 51 54 59 63 68 75 76 81 85 90 98 104 111 115 122 128 131 131 127 121 116 112 111 109 105 104 101 95 89 84 80 76 72 67 63
47 49 47 46 42 47 46 49 53 58 63 66 69 72 78 85 88 93 101 106 109 115 122 126 131 130 126 119 115 111 107 105 105 102 97 95 87 81 77 73 69 66 63 59
53 52 51 48 50 52 54 56 58 64 69 73 78 81 82 88 95 100 105 111 116 123 127 132 130 124 118 112 112 109 107 103 100 96 89 84 79 73 70 66 64 62 60 57
58 60 55 52 53 54 59 61 65 69 74 78 80 85 91 97 101 108 114 121 127 130 131 128 124 119 114 111 110 106 103 99 95 91 83 76 71 68 65 63 62 59 55 51
63 65 61 59 59 61 63 67 72 75 77 82 88 94 100 106 110 118 124 127 128 128 128 126 120 116 111 107 105 102 97 93 87 81 76 70 66 65 63 62 59 55 51 49
66 67 65 64 67 67 70 75 78 82 87 92 96 101 107 112 120 123 124 126 128 129 126 121 116 111 105 102 100 94 88 83 79 73 69 66 64 62 59 58 54 51 49 47
67 67 66 68 71 73 78 80 84 90 95 101 104 110 115 117 122 124 128 129 129 129 122 115 111 106 102 97 90 85 80 76 71 68 65 64 61 59 56 52 50 49 49 45
69 68 71 72 76 80 84 89 93 98 102 106 110 114 119 124 127 130 130 130 129 126 118 109 104 98 93 87 82 77 73 70 67 64 62 61 58 55 53 50 47 45 45 43
71 72 75 76 82 88 92 95 99 104 107 111 115 118 124 132 128 129 130 128 127 122 112 103 96 90 85 79 75 71 68 66 64 61 59 56 54 52 49 47 47 47 43 41
75 76 79 84 89 93 97 100 103 107 112 117 120 123 128 129 130 129 128 126 120 111 102 96 90 84 80 75 71 68 66 64 61 58 55 53 51 49 47 46 44 42 42 39
80 85 88 91 93 97 99 104 109 112 115 121 124 126 129 131 129 127 125 120 111 101 95 89 84 78 74 70 68 65 63 60 57 54 52 50 48 47 45 44 43 41 38 37
86 89 92 94 99 102 105 110 112 118 123 121 123 126 128 128 127 123 119 110 101 94 89 84 78 74 70 68 65 62 59 56 54 52 50 47 45 45 44 43 42 40 38 35
90 94 97 100 103 106 112 117 120 122 119 122 127 125 123 124 120 113 107 101 93 88 82 77 73 70 67 64 62 58 56 54 51 49 48 46 45 44 44 42 41 39 36 33
95 98 101 104 108 112 118 122 121 120 122 123 122 120 119 117 108 102 98 92 87 82 76 73 69 67 64 61 58 56 53 51 49 47 47 46 45 43 42 41 39 37 35 32
100 103 105 110 114 118 121 120 118 120 120 120 117 114 112 107 100 95 91 87 81 77 73 69 66 64 61 58 56 53 51 48 48 47 46 45 44 42 41 40 38 36 33 31
107 107 113 116 120 120 118 117 117 116 118 115 111 106 102 100 95 90 86 82 76 72 69 66 63 60 58 56 53 51 50 49 48 46 44 44 43 40 39 38 37 35 32 30
112 116 119 121 117 117 117 117 114 115 112 108 102 99 98 94 91 86 79 76 73 68 66 63 60 58 56 54 51 51 50 48 46 44 44 42 40 40 39 38 36 34 32 30
118 117 117 115 114 113 114 113 111 109 105 100 98 95 93 90 85 81 74 70 67 65 63 60 58 55 53 52 53 51 47 46 45 45 43 41 39 38 38 37 36 35 34 31
113 114 114 114 112 113 112 110 105 102 97 96 95 91 88 85 78 74 72 69 65 62 60 58 55 53 52 52 50 48 47 46 46 44 43 41 39 38 38 37 36 35 34 32
113 112 112 112 110 108 104 101 96 95 94 93 89 86 80 77 76 70 66 63 61 60 58 55 53 53 52 50 48 47 47 46 44 44 43 41 40 39 39 38 37 36 34 32
110 110 107 105 103 100 95 93 93 92 90 87 84 80 75 71 67 67 64 59 57 56 53 53 53 52 49 48 48 48 48 46 44 42 41 40 39 40 39 37 36 35 34 32
106 105 104 100 96 93 91 90 89 86 82 79 79 73 69 67 64 62 58 56 55 53 53 52 51 50 49 49 50 49 47 45 43 41 40 39 39 40 38 36 35 34 33 31
102 99 95 93 90 88 87 85 82 79 76 73 71 68 64 63 60 57 55 53 52 51 51 51 50 50 50 50 48 46 44 41 40 40 40 40 40 40 38 36 35 33 32 31
Wind_Direction
303 305 304 302 300 293 291 286 285 292 292 293 295 297 301 306 305 304 305 306 307 307 307 307 305 306 305 305 304 303 304 307 307 307 306 306 305 304 303 303 302 302 302 301
304 306 304 305 303 296 294 293 288 292 295 297 297 300 304 306 306 308 309 309 308 307 306 304 304 304 304 304 306 311 309 307 306 307 306 306 305 304 304 304 304 302 302 302
305 304 303 305 303 299 297 298 295 296 299 298 299 301 302 305 304 305 306 305 304 306 307 305 305 306 306 307 309 309 309 308 308 308 307 307 306 306 305 304 303 303 303 302
304 303 298 302 296 295 296 297 296 299 300 301 303 304 303 304 306 305 303 304 307 307 306 306 308 308 309 310 311 310 309 309 309 308 307 305 306 306 306 305 304 304 304 304
302 301 298 300 301 299 297 298 300 304 306 307 307 308 307 305 304 304 305 306 306 308 309 308 308 309 311 312 312 311 311 311 309 309 309 308 308 308 307 307 307 307 307 307
300 303 304 299 299 299 297 299 303 307 308 308 308 307 307 308 307 306 307 307 308 308 308 309 310 311 313 314 312 311 310 310 309 309 311 310 310 310 310 309 310 309 310 310
301 303 305 302 303 302 301 303 304 304 305 308 310 309 307 306 307 308 309 309 309 309 311 311 314 315 314 313 314 313 311 311 312 311 313 312 312 311 311 312 311 312 313 311
301 303 303 301 302 302 302 305 307 309 309 308 308 307 307 309 311 311 309 310 311 312 314 315 314 315 315 316 315 313 313 313 313 314 314 313 313 313 314 314 313 313 312 312
300 301 303 303 302 304 305 308 308 308 308 308 309 310 313 312 311 311 312 312 313 314 315 316 317 316 316 316 315 313 314 314 314 314 314 315 316 316 316 315 315 315 315 314
299 300 303 302 304 308 309 308 308 310 310 311 312 312 312 312 312 314 313 313 314 315 316 316 317 317 317 316 314 314 314 314 314 314 315 317 317 318 316 316 317 317 316 314
296 297 299 302 304 307 307 308 308 308 310 312 312 311 313 313 313 312 312 313 315 316 316 318 318 317 316 315 314 315 315 315 315 317 318 318 319 318 317 318 318 317 316 317
295 297 297 301 304 306 306 307 308 309 310 311 312 313 313 313 313 312 313 314 315 316 317 318 317 316 315 315 316 317 317 317 318 319 319 319 319 318 319 319 318 318 317 318
296 299 301 303 304 305 306 307 309 311 312 311 312 312 311 311 311 313 314 315 315 317 317 317 317 317 317 318 318 318 318 319 319 320 320 319 318 319 319 319 320 320 321 319
296 299 302 302 304 305 307 309 310 311 310 311 311 311 311 312 313 313 315 315 315 316 317 318 318 319 319 319 320 320 320 320 320 320 320 318 319 320 319 320 321 320 320 318
299 301 302 303 305 306 307 310 311 310 309 310 309 310 311 312 312 313 314 315 316 317 318 319 319 320 320 321 321 320 320 320 320 320 320 319 320 319 320 322 322 321 320 318
299 300 302 304 304 307 309 309 308 308 309 310 310 309 310 312 312 314 315 316 317 318 319 319 320 321 321 321 320 320 320 320 320 320 320 321 322 322 323 322 322 322 321 320
299 301 303 304 306 307 306 306 307 308 308 306 306 309 310 310 311 313 316 317 318 318 319 320 321 321 320 321 321 321 320 320 321 321 321 322 324 323 322 323 323 324 323 322
301 301 303 303 303 303 305 306 306 306 305 306 308 309 309 311 313 315 317 317 319 319 320 321 321 321 321 321 321 321 321 322 322 323 324 324 324 324 323 324 325 325 324 323
298 300 299 300 302 303 303 303 304 304 306 307 308 309 311 312 315 318 318 319 319 320 320 321 321 321 320 321 322 321 322 323 323 325 325 324 324 324 324 326 326 325 325 324
297 297 298 299 301 302 302 302 303 305 306 307 309 311 313 314 317 318 319 318 320 320 320 320 321 321 321 322 322 322 323 324 324 325 324 324 323 325 326 325 325 325 326 326
294 295 296 299 300 301 300 300 302 304 306 308 311 312 314 316 316 317 317 318 319 319 319 319 320 321 322 322 322 323 323 324 324 324 324 323 324 325 326 326 324 325 326 326
294 295 297 297 298 298 300 302 304 305 307 309 312 314 315 315 316 316 317 318 317 317 318 319 320 321 321 322 322 322 323 323 323 323 322 323 324 325 325 324 324 324 326 326
295 295 295 296 297 298 301 303 305 307 309 311 313 314 314 314 315 315 317 316 316 317 318 319 319 320 321 321 320 321 321 322 322 322 322 324 324 324 324 323 323 323 323 324
294 294 295 298 300 300 302 304 307 309 311 311 312 312 313 313 313 315 315 314 315 315 316 318 319 319 319 319 319 320 320 321 321 322 322 322 322 323 323 322 322 322 321 321
295 297 299 301 302 302 304 307 308 309 309 311 311 311 312 312 313 312 312 312 313 314 316 317 317 318 318 318 319 320 319 320 320 319 319 319 320 322 322 322 321 321 321 320
297 299 300 302 303 305 306 307 308 307 309 311 309 309 311 311 311 310 310 312 313 315 316 316 317 318 318 318 318 318 318 318 316 316 318 319 320 321 321 322 321 320 319 319
297 299 301 302 303 305 305 305 306 308 309 307 307 309 310 309 309 308 310 312 313 314 315 316 316 316 316 315 315 314 314 314 316 317 318 318 319 320 320 320 320 318 317 317
Height
10627 10624 10621 10619 10617 10613 10609 10605 10601 10594 10590 10586 10582 10575 10570 10566 10555 10548 10540 10528 10516 10505 10491 10478 10464 10447 10430 10414 10396 10378 10356 10336 10316 10299 10280 10263 10246 10229 10212 10194 10177 10160 10145 10131
10619 10616 10611 10609 10606 10602 10599 10595 10591 10587 10581 10576 10571 10566 10557 10551 10540 10531 10521 10510 10498 10486 10472 10456 10440 10424 10405 10385 10364 10344 10324 10304 10285 10268 10250 10233 10217 10201 10182 10166 10149 10133 10119 10108
10613 10608 10601 10601 10596 10591 10587 10585 10580 10576 10572 10566 10559 10553 10545 10540 10525 10517 10505 10492 10479 10464 10449 10432 10416 10397 10378 10353 10333 10314 10295 10275 10256 10239 10222 10204 10187 10171 10154 10139 10124 10109 10097 10085
10607 10601 10591 10592 10587 10581 10575 10573 10568 10565 10560 10554 10546 10538 10529 10519 10509 10497 10485 10472 10458 10442 10425 10405 10385 10364 10346 10324 10301 10280 10263 10250 10230 10214 10196 10179 10164 10146 10130 10114 10101 10088 10076 10065
10596 10592 10585 10581 10576 10570 10564 10558 10554 10550 10544 10537 10529 10520 10505 10501 10488 10476 10464 10450 10434 10416 10395 10375 10355 10336 10317 10295 10273 10252 10238 10214 10195 10184 10167 10150 10136 10121 10106 10092 10078 10065 10055 10046
10584 10580 10575 10569 10568 10558 10554 10550 10542 10534 10526 10518 10511 10505 10492 10478 10465 10453 10439 10423 10407 10390 10372 10349 10328 10305 10287 10268 10247 10230 10214 10197 10174 10156 10143 10123 10111 10096 10083 10071 10059 10047 10036 10028
10571 10566 10563 10558 10552 10546 10539 10536 10530 10523 10513 10504 10495 10485 10476 10464 10449 10433 10416 10398 10381 10362 10342 10318 10295 10274 10257 10239 10220 10200 10179 10165 10148 10132 10120 10103 10089 10077 10065 10053 10042 10031 10021 10012
10557 10550 10551 10545 10539 10535 10525 10520 10515 10507 10499 10490 10477 10465 10453 10439 10422 10406 10390 10370 10350 10329 10310 10288 10267 10247 10229 10212 10192 10174 10155 10139 10123 10107 10096 10084 10072 10059 10048 10037 10026 10017 10007 9998
10543 10534 10533 10530 10525 10521 10513 10507 10498 10489 10478 10468 10456 10441 10426 10411 10395 10379 10359 10339 10320 10300 10281 10260 10240 10222 10203 10186 10168 10149 10134 10117 10103 10090 10076 10065 10054 10042 10032 10020 10011 10001 9993 9985
10529 10518 10517 10512 10504 10502 10493 10485 10476 10466 10455 10443 10431 10418 10404 10387 10369 10349 10331 10312 10293 10273 10254 10237 10217 10198 10181 10164 10145 10130 10114 10100 10086 10074 10061 10049 10038 10029 10019 10007 9998 9988 9981 9973
10515 10509 10505 10498 10488 10483 10474 10467 10457 10447 10434 10422 10409 10395 10379 10361 10342 10323 10304 10286 10268 10247 10227 10209 10191 10174 10157 10141 10126 10109 10094 10081 10069 10057 10045 10033 10024 10014 10006 9996 9987 9978 9969 9962
10500 10495 10488 10485 10474 10465 10456 10446 10437 10426 10414 10400 10384 10370 10353 10336 10315 10295 10278 10261 10242 10223 10203 10187 10169 10153 10136 10119 10104 10090 10077 10065 10053 10043 10031 10021 10011 10003 9993 9985 9977 9969 9959 9951
10482 10477 10471 10465 10457 10447 10437 10428 10418 10403 10389 10375 10361 10343 10327 10311 10291 10271 10251 10235 10215 10196 10178 10163 10148 10131 10115 10101 10086 10074 10061 10050 10038 10028 10018 10009 10000 9991 9983 9976 9965 9955 9950 9942
10467 10461 10456 10447 10439 10429 10417 10405 10394 10381 10366 10350 10335 10318 10297 10279 10263 10243 10225 10209 10191 10174 10157 10140 10125 10110 10095 10082 10070 10059 10047 10035 10025 10016 10007 9998 9989 9981 9973 9965 9958 9950 9941 9934
10449 10442 10434 10427 10417 10407 10395 10384 10371 10357 10344 10329 10309 10289 10270 10255 10238 10221 10203 10186 10170 10153 10136 10120 10106 10092 10079 10067 10055 10044 10033 10022 10013 10004 9996 9988 9979 9971 9963 9955 9948 9940 9934 9926
10433 10424 10415 10403 10394 10383 10371 10359 10348 10335 10319 10302 10285 10267 10247 10228 10211 10196 10179 10163 10149 10133 10117 10101 10089 10076 10064 10053 10041 10031 10021 10011 10002 9994 9986 9977 9969 9961 9953 9946 9939 9932 9925 9918
10412 10403 10393 10382 10371 10360 10347 10335 10323 10310 10296 10280 10264 10246 10226 10207 10195 10176 10159 10142 10128 10113 10101 10086 10074 10062 10050 10040 10029 10019 10010 10000 9991 9983 9975 9967 9960 9952 9944 9937 9930 9924 9918 9911
10387 10379 10371 10360 10349 10337 10325 10313 10301 10286 10271 10258 10242 10223 10205 10186 10172 10157 10141 10125 10111 10095 10084 10071 10060 10048 10037 10027 10017 10008 9999 9990 9982 9973 9965 9958 9951 9943 9935 9928 9922 9916 9910 9904
10366 10360 10348 10336 10326 10316 10303 10291 10278 10261 10246 10232 10217 10200 10181 10161 10149 10135 10121 10106 10094 10080 10067 10058 10046 10036 10025 10016 10007 9998 9990 9982 9973 9965 9957 9950 9943 9935 9928 9920 9914 9909 9903 9897
10349 10337 10324 10315 10302 10291 10279 10266 10254 10239 10221 10209 10193 10177 10161 10141 10128 10117 10104 10088 10078 10066 10054 10043 10033 10023 10013 10005 9996 9988 9980 9972 9964 9956 9949 9942 9935 9928 9920 9913 9907 9902 9897 9891
10320 10311 10301 10289 10278 10263 10250 10239 10229 10215 10196 10181 10167 10152 10139 10123 10110 10099 10089 10074 10062 10052 10041 10032 10022 10011 10003 9994 9986 9978 9970 9962 9955 9948 9942 9935 9928 9920 9913 9906 9900 9894 9889 9884
10296 10287 10275 10264 10254 10241 10226 10213 10201 10187 10172 10158 10144 10132 10120 10107 10095 10080 10072 10062 10051 10039 10029 10019 10010 10001 9992 9984 9975 9968 9961 9954 9947 9940 9934 9927 9920 9913 9906 9899 9893 9887 9882 9877
10270 10258 10248 10236 10226 10215 10202 10188 10176 10161 10148 10135 10123 10113 10102 10089 10080 10068 10055 10045 10035 10026 10017 10008 9999 9991 9983 9975 9967 9959 9952 9945 9938 9931 9924 9917 9911 9905 9899 9893 9886 9880 9875 9869
10239 10228 10219 10208 10199 10188 10179 10163 10151 10137 10126 10114 10104 10094 10086 10075 10058 10052 10043 10034 10024 10014 10005 9997 9989 9981 9973 9965 9958 9951 9944 9936 9929 9922 9915 9909 9903 9897 9891 9885 9879 9873 9867 9862
10207 10198 10189 10181 10171 10161 10151 10139 10127 10115 10107 10097 10085 10075 10067 10058 10049 10037 10029 10021 10011 10003 9994 9986 9978 9970 9963 9956 9949 9942 9935 9927 9921 9915 9909 9902 9896 9889 9883 9877 9871 9865 9859 9854
10179 10170 10162 10154 10145 10136 10126 10116 10107 10097 10090 10081 10066 10060 10051 10041 10033 10025 10016 10008 9999 9991 9983 9975 9967 9960 9953 9945 9939 9932 9925 9919 9913 9907 9900 9894 9888 9881 9875 9869 9863 9857 9852 9847
10154 10146 10139 10130 10123 10115 10105 10095 10087 10079 10070 10063 10052 10042 10034 10026 10019 10011 10003 9995 9987 9980 9972 9964 9956 9950 9942 9936 9930 9924 9917 9911 9905 9898 9892 9885 9879 9873 9867 9862 9856 9850 9845 9840